Time,TemperatureF,DewpointF,PressureIn,WindDirection,WindDirectionDegrees,WindSpeedMPH,WindSpeedGustMPH,Humidity,HourlyPrecipIn,Conditions,Clouds,dailyrainin,SolarRadiationWatts/m^2,SoftwareType,DateUTC
2013-02-12 00:01:00,0.0,-4.0,-100.00,South,182,8.0,10.0,84,-99.99,,,0.01,0.000000,,2013-02-12 08:01:00,
2013-02-12 00:11:00,0.0,-4.0,-100.00,South,182,8.0,10.0,84,-99.99,,,0.01,0.000000,,2013-02-12 08:11:00,
2013-02-12 00:21:00,0.0,-4.0,-100.00,South,182,8.0,10.0,84,-99.99,,,0.01,0.000000,,2013-02-12 08:21:00,
2013-02-12 00:52:00,1.0,-3.0,-100.00,SSW,200,6.0,11.0,84,0.00,,,0.01,0.000000,,2013-02-12 08:52:00,
2013-02-12 01:01:00,1.0,-3.0,-100.00,SSW,200,6.0,11.0,84,0.00,,,0.01,0.000000,,2013-02-12 09:01:00,
2013-02-12 01:11:00,1.0,-3.0,-100.00,SSW,200,6.0,11.0,84,0.00,,,0.01,0.000000,,2013-02-12 09:11:00,
2013-02-12 01:21:00,1.0,-3.0,-100.00,SSW,200,6.0,11.0,84,0.00,,,0.01,0.000000,,2013-02-12 09:21:00,
2013-02-12 01:52:00,0.0,-4.0,-100.00,South,181,10.0,12.0,82,-99.99,,,0.01,0.000000,,2013-02-12 09:52:00,
2013-02-12 02:01:00,0.0,-4.0,-100.00,South,181,10.0,12.0,82,-99.99,,,0.01,0.000000,,2013-02-12 10:01:00,
2013-02-12 02:11:00,0.0,-4.0,-100.00,South,181,10.0,12.0,82,-99.99,,,0.01,0.000000,,2013-02-12 10:11:00,
2013-02-12 02:21:00,0.0,-4.0,-100.00,South,181,10.0,12.0,82,-99.99,,,0.01,0.000000,,2013-02-12 10:21:00,
2013-02-12 02:52:00,-1.0,-4.0,-100.00,South,186,8.0,13.0,87,0.00,,,0.01,0.000000,,2013-02-12 10:52:00,
2013-02-12 03:01:00,-1.0,-4.0,-100.00,South,186,8.0,13.0,87,0.00,,,0.01,0.000000,,2013-02-12 11:01:00,
2013-02-12 03:11:00,-1.0,-4.0,-100.00,South,186,8.0,13.0,87,0.00,,,0.01,0.000000,,2013-02-12 11:11:00,
2013-02-12 03:21:00,-1.0,-4.0,-100.00,South,186,8.0,13.0,87,0.00,,,0.01,0.000000,,2013-02-12 11:21:00,
2013-02-12 03:52:00,1.0,-3.0,-100.00,South,189,9.0,13.0,84,0.00,,,0.01,0.000000,,2013-02-12 11:52:00,
2013-02-12 04:01:00,1.0,-3.0,-100.00,South,189,9.0,13.0,84,0.00,,,0.01,0.000000,,2013-02-12 12:01:00,
2013-02-12 04:11:00,1.0,-3.0,-100.00,South,189,9.0,13.0,84,0.00,,,0.01,0.000000,,2013-02-12 12:11:00,
2013-02-12 04:21:00,1.0,-3.0,-100.00,South,189,9.0,13.0,84,0.00,,,0.01,0.000000,,2013-02-12 12:21:00,
2013-02-12 04:52:00,-2.0,-6.0,-100.00,South,172,8.0,12.0,83,0.00,,,0.01,0.000000,,2013-02-12 12:52:00,
2013-02-12 05:01:00,-2.0,-6.0,-100.00,South,172,8.0,12.0,83,0.00,,,0.01,0.000000,,2013-02-12 13:01:00,
2013-02-12 05:11:00,-2.0,-6.0,-100.00,South,172,8.0,12.0,83,0.00,,,0.01,0.000000,,2013-02-12 13:11:00,
2013-02-12 05:22:00,-2.0,-6.0,-100.00,South,172,8.0,12.0,83,0.00,,,0.01,0.000000,,2013-02-12 13:22:00,
2013-02-12 05:52:00,-2.0,-6.0,-100.00,South,181,7.0,13.0,84,0.00,,,0.01,0.000000,,2013-02-12 13:52:00,
2013-02-12 06:01:00,-2.0,-6.0,-100.00,South,181,7.0,13.0,84,0.00,,,0.01,0.000000,,2013-02-12 14:01:00,
2013-02-12 06:11:00,-2.0,-6.0,-100.00,South,181,7.0,13.0,84,0.00,,,0.01,0.000000,,2013-02-12 14:11:00,
2013-02-12 06:21:00,-2.0,-6.0,-100.00,South,181,7.0,13.0,84,0.00,,,0.01,0.000000,,2013-02-12 14:21:00,
2013-02-12 06:52:00,-2.0,-5.0,-100.00,South,179,11.0,11.0,85,0.00,,,0.01,0.000000,,2013-02-12 14:52:00,
2013-02-12 07:01:00,-2.0,-5.0,-100.00,South,179,11.0,11.0,85,0.00,,,0.01,0.000000,,2013-02-12 15:01:00,
2013-02-12 07:11:00,-2.0,-5.0,-100.00,South,179,11.0,11.0,85,0.00,,,0.01,0.000000,,2013-02-12 15:11:00,
2013-02-12 07:21:00,-2.0,-5.0,-100.00,South,179,11.0,11.0,85,0.00,,,0.01,0.000000,,2013-02-12 15:21:00,
2013-02-12 07:52:00,-1.0,-6.0,-100.00,SSW,196,8.0,14.0,80,0.00,,,0.01,0.000000,,2013-02-12 15:52:00,
2013-02-12 08:01:00,-1.0,-6.0,-100.00,SSW,196,8.0,14.0,80,0.00,,,0.01,0.000000,,2013-02-12 16:01:00,
2013-02-12 08:11:00,-1.0,-6.0,-100.00,SSW,196,8.0,14.0,80,0.00,,,0.01,0.000000,,2013-02-12 16:11:00,
2013-02-12 08:22:00,-1.0,-6.0,-100.00,SSW,196,8.0,14.0,80,0.00,,,0.01,0.000000,,2013-02-12 16:22:00,
2013-02-12 08:52:00,2.0,-5.0,-100.00,South,176,8.0,14.0,73,0.00,,,0.01,4.000000,,2013-02-12 16:52:00,
2013-02-12 09:01:00,2.0,-5.0,-100.00,South,176,8.0,14.0,73,0.00,,,0.01,4.000000,,2013-02-12 17:01:00,
2013-02-12 09:11:00,2.0,-5.0,-100.00,South,176,8.0,14.0,73,0.00,,,0.01,4.000000,,2013-02-12 17:11:00,
2013-02-12 09:52:00,10.0,-1.0,-100.00,South,173,7.0,11.0,61,-99.99,,,0.01,155.000000,,2013-02-12 17:52:00,
2013-02-12 10:01:00,10.0,-1.0,-100.00,South,173,7.0,11.0,61,-99.99,,,0.01,155.000000,,2013-02-12 18:01:00,
2013-02-12 10:11:00,10.0,-1.0,-100.00,South,173,7.0,11.0,61,-99.99,,,0.01,155.000000,,2013-02-12 18:11:00,
2013-02-12 10:52:00,21.0,3.0,-100.00,SSW,204,3.0,10.0,44,-99.99,,,0.01,354.000000,,2013-02-12 18:52:00,
2013-02-12 11:02:00,21.0,3.0,-100.00,SSW,204,3.0,10.0,44,-99.99,,,0.01,354.000000,,2013-02-12 19:02:00,
2013-02-12 11:11:00,21.0,3.0,-100.00,SSW,204,3.0,10.0,44,-99.99,,,0.01,354.000000,,2013-02-12 19:11:00,
2013-02-12 11:52:00,33.0,4.0,-100.00,WNW,302,1.0,8.0,29,0.00,,,-99.99,624.000000,,2013-02-12 19:52:00,
2013-02-12 12:01:00,33.0,4.0,-100.00,WNW,302,1.0,8.0,29,0.00,,,-99.99,624.000000,,2013-02-12 20:01:00,
2013-02-12 12:52:00,42.0,22.0,-100.00,North,353,4.0,4.0,45,0.00,,,0.00,750.000000,,2013-02-12 20:52:00,
2013-02-12 13:01:00,42.0,22.0,-100.00,North,353,4.0,4.0,45,0.00,,,0.00,750.000000,,2013-02-12 21:01:00,
2013-02-12 13:52:00,34.0,16.0,-100.00,North,4,6.0,6.0,48,-99.99,,,0.01,828.000000,,2013-02-12 21:52:00,
2013-02-12 14:01:00,34.0,16.0,-100.00,North,4,6.0,6.0,48,-99.99,,,0.01,828.000000,,2013-02-12 22:01:00,
2013-02-12 14:12:00,34.0,16.0,-100.00,North,4,6.0,6.0,48,-99.99,,,0.01,828.000000,,2013-02-12 22:12:00,
2013-02-12 14:21:00,34.0,16.0,-100.00,North,4,6.0,6.0,48,-99.99,,,0.01,828.000000,,2013-02-12 22:21:00,
2013-02-12 14:52:00,34.0,16.0,-100.00,North,9,5.0,9.0,48,0.00,,,0.01,828.000000,,2013-02-12 22:52:00,
2013-02-12 15:01:00,34.0,16.0,-100.00,North,9,5.0,9.0,48,0.00,,,0.01,828.000000,,2013-02-12 23:01:00,
2013-02-12 15:11:00,34.0,16.0,-100.00,North,9,5.0,9.0,48,0.00,,,0.01,828.000000,,2013-02-12 23:11:00,
2013-02-12 15:21:00,34.0,16.0,-100.00,North,9,5.0,9.0,48,0.00,,,0.01,828.000000,,2013-02-12 23:21:00,
2013-02-12 15:52:00,34.0,18.0,-100.00,North,356,2.0,10.0,52,0.00,,,-99.99,757.000000,,2013-02-12 23:52:00,
2013-02-12 16:02:00,34.0,18.0,-100.00,North,356,2.0,10.0,52,0.00,,,-99.99,757.000000,,2013-02-13 00:02:00,
2013-02-12 16:11:00,34.0,18.0,-100.00,North,356,2.0,10.0,52,0.00,,,-99.99,757.000000,,2013-02-13 00:11:00,
2013-02-12 16:21:00,34.0,18.0,-100.00,North,356,2.0,10.0,52,0.00,,,-99.99,757.000000,,2013-02-13 00:21:00,
2013-02-12 16:52:00,35.0,18.0,-100.00,North,356,1.0,8.0,49,0.00,,,0.01,623.000000,,2013-02-13 00:52:00,
2013-02-12 17:01:00,35.0,18.0,-100.00,North,356,1.0,8.0,49,0.00,,,0.01,623.000000,,2013-02-13 01:01:00,
2013-02-12 17:11:00,35.0,18.0,-100.00,North,356,1.0,8.0,49,0.00,,,0.01,623.000000,,2013-02-13 01:11:00,
2013-02-12 17:21:00,35.0,18.0,-100.00,North,356,1.0,8.0,49,0.00,,,0.01,623.000000,,2013-02-13 01:21:00,
2013-02-12 18:11:00,35.0,29.0,-100.00,NW,316,4.0,4.0,80,0.00,,,0.01,424.000000,,2013-02-13 02:11:00,
2013-02-12 18:52:00,24.0,19.0,-100.00,West,273,3.0,6.0,81,-99.99,,,0.01,185.000000,,2013-02-13 02:52:00,
2013-02-12 19:01:00,24.0,19.0,-100.00,West,273,3.0,6.0,81,-99.99,,,0.01,185.000000,,2013-02-13 03:01:00,
2013-02-12 19:11:00,24.0,19.0,-100.00,West,273,3.0,6.0,81,-99.99,,,0.01,185.000000,,2013-02-13 03:11:00,
2013-02-12 19:21:00,24.0,19.0,-100.00,West,273,3.0,6.0,81,-99.99,,,0.01,185.000000,,2013-02-13 03:21:00,
2013-02-12 19:52:00,21.0,18.0,-100.00,NNE,13,0.0,5.0,88,0.00,,,0.01,17.000000,,2013-02-13 03:52:00,
2013-02-12 20:01:00,21.0,18.0,-100.00,NNE,13,0.0,5.0,88,0.00,,,0.01,17.000000,,2013-02-13 04:01:00,
2013-02-12 20:11:00,21.0,18.0,-100.00,NNE,13,0.0,5.0,88,0.00,,,0.01,17.000000,,2013-02-13 04:11:00,
2013-02-12 20:21:00,21.0,18.0,-100.00,NNE,13,0.0,5.0,88,0.00,,,0.01,17.000000,,2013-02-13 04:21:00,
2013-02-12 20:52:00,19.0,17.0,-100.00,East,88,0.0,6.0,93,0.00,,,0.01,0.000000,,2013-02-13 04:52:00,
2013-02-12 21:01:00,19.0,17.0,-100.00,East,88,0.0,6.0,93,0.00,,,0.01,0.000000,,2013-02-13 05:01:00,
2013-02-12 21:11:00,19.0,17.0,-100.00,East,88,0.0,6.0,93,0.00,,,0.01,0.000000,,2013-02-13 05:11:00,
2013-02-12 21:22:00,19.0,17.0,-100.00,East,88,0.0,6.0,93,0.00,,,0.01,0.000000,,2013-02-13 05:22:00,
2013-02-12 21:52:00,12.0,10.0,-100.00,SSW,194,4.0,5.0,93,0.00,,,0.01,0.000000,,2013-02-13 05:52:00,
2013-02-12 22:02:00,12.0,10.0,-100.00,SSW,194,4.0,5.0,93,0.00,,,0.01,0.000000,,2013-02-13 06:02:00,
2013-02-12 22:52:00,12.0,10.0,-100.00,SSW,195,6.0,7.0,93,0.00,,,0.01,0.000000,,2013-02-13 06:52:00,
2013-02-12 23:02:00,12.0,10.0,-100.00,SSW,195,6.0,7.0,93,0.00,,,0.01,0.000000,,2013-02-13 07:02:00,
2013-02-12 23:11:00,12.0,10.0,-100.00,SSW,195,6.0,7.0,93,0.00,,,0.01,0.000000,,2013-02-13 07:11:00,
2013-02-12 23:21:00,12.0,10.0,-100.00,SSW,195,6.0,7.0,93,0.00,,,0.01,0.000000,,2013-02-13 07:21:00,
2013-02-12 23:52:00,15.0,12.0,-100.00,South,172,3.0,8.0,89,0.00,,,-99.99,0.000000,,2013-02-13 07:52:00,